Zurück zum Katalog

STARLINK-30435

AktivKommunikationVLEO
NORAD 57842·PAYLOAD·🇺🇸 United States

Gestartet Sep 12, 2023 von Vandenberg Space Force Base

Loading…

Nächste Überflüge (nächste 24 Stunden)

TLE

AktuellSource: CelesTrak SupGP

Epoche: Sep 15, 2026, 02:08 UTC

1 57842C 23141C   26258.08937500  .00047438  00000+0  15253-2 0  2583
2 57842  53.1571 123.0972 0001238  77.0288 214.8372 15.31681773    10

Verfolge STARLINK-30435 in Echtzeit mit AllMySat

Download on the App Store